Regional Weather Roundup
Issued by NWS

Home | Current Version | Previous Version | Text Only | Print | Product List | Glossary On
Versions: 1 2 3 4 5 6 7 8 9 10 11 12 13 14 15 16 17 18 19 20 21 22 23 24 25 26 27 28 29 30 31 32 33 34 35 36 37 38 39 40 41 42 43 44 45 46 47 48 49 50
000
ASUS43 KTOP 300308
RWRKS

WEATHER ROUNDUP FOR KANSAS
NATIONAL WEATHER SERVICE GOODLAND KS
1000 PM CDT MON JUN 29 2015

NOTE:  "FAIR" INDICATES FEW OR NO CLOUDS BELOW 12,000 FEET WITH NO
SIGNIFICANT WEATHER AND/OR OBSTRUCTIONS TO VISIBILITY.

KSZ001>006-013>018-027>032-041>047-300400-
NORTHWEST KANSAS

CITY           SKY/WX    TMP DP  RH WIND       PRES   REMARKS
GOODLAND       CLEAR     75  54  47 SW10      30.09S
HAYS           CLEAR     82  54  36 NW6       29.99S
HILL CITY      CLEAR     80  52  37 VRB5      30.01R
RUSSELL        CLEAR     77  57  50 E8        29.96R
$$

KSZ061>065-074>080-084>089-300400-
SOUTHWEST KANSAS

CITY           SKY/WX    TMP DP  RH WIND       PRES   REMARKS
DODGE CITY     CLEAR     71  56  58 NW6       30.03R
ELKHART          N/A     73  57  57 SE6         N/A
GARDEN CITY    CLEAR     74  62  66 SE5       30.04S
GREAT BEND     CLEAR     77  59  53 W3        29.99R
LIBERAL        CLEAR     75  59  57 NW3         N/A
PRATT          CLEAR    N/A N/A N/A CALM      30.00R
$$

KSZ066>073-081>083-090>101-300400-
SOUTHEAST KANSAS

CITY           SKY/WX    TMP DP  RH WIND       PRES   REMARKS
CHANUTE        CLEAR     71  65  81 S3        29.94R
COFFEYVILLE    CLEAR     74  65  73 CALM      29.93R
HUTCHINSON     CLEAR     73  61  65 E3        29.96R
MEDICINE LODGE   N/A     83  58  42 SE7       29.96R
NEWTON         CLEAR     75  55  50 SE6       29.99S
PARSONS        CLEAR     70  67  90 CALM      29.95R
WICHITA INTL   PTCLDY    79  59  50 SE5       29.95R
WICHITA JABRA  CLEAR     76  58  53 SE3       29.96R
WICHITA MCCONL CLEAR     78  60  54 SE3       29.96R
WINFIELD       CLEAR     74  61  63 SE3       29.97R
$$

KSZ007>012-019>026-033>040-048>060-102>105-300400-
NORTHEAST KANSAS

CITY           SKY/WX    TMP DP  RH WIND       PRES   REMARKS
CONCORDIA      CLEAR     75  61  61 S5        29.96R
EMPORIA        CLEAR     73  62  68 S6        29.94R
LAWRENCE       CLEAR     71  67  87 CALM      29.92R
MANHATTAN      CLEAR     71  63  75 CALM      29.94R
MARYSVILLE     CLEAR     70  63  78 CALM      29.94R
OLATHE IND     CLEAR     76  64  66 CALM      29.93R
OLATHE EXE     CLEAR     74  65  73 CALM      29.92R
SALINA         CLEAR     77  57  50 SE3       29.95R
TOPEKA BILLARD CLEAR     76  67  73 CALM      29.92R
TOPEKA FORBES  CLEAR     75  66  73 CALM      29.93R
$$


USA.gov is the U.S. government's official web portal to all federal, state and local government web resources and services.